DW4839 Weather Reports


time (UTC)temp
F
wind
direction
speed
knots
gust
knots
rain 1hr
in
rain 24hr
in
rain mn
in
humidity
%
barometer
mb
20260902024603 61 191 3.5 7.0 0.00 0.00 0.00 73 1012.0
20260902023101 61 197 4.3 11.3 0.00 0.00 0.00 72 1011.9
20260902021605 62 205 2.6 6.1 0.00 0.00 0.00 71 1011.7
20260902020141 63 210 1.7 5.2 0.00 0.00 0.00 70 1011.7
20260902014602 63 188 3.5 7.8 0.00 0.00 0.00 70 1011.6
20260902013106 63 211 2.6 8.7 0.00 0.00 0.00 68 1011.6
20260902011555 63 223 4.3 7.0 0.00 0.00 0.00 67 1011.6
20260902010052 63 241 1.7 8.7 0.00 0.00 0.00 67 1011.5
20260902004603 64 210 2.6 9.6 0.00 0.00 0.00 66 1011.3
20260902003104 65 252 3.5 8.7 0.00 0.00 0.00 64 1011.2
20260902001556 67 242 4.3 10.4 0.00 0.00 0.00 62 1011.2
20260902000104 66 221 2.6 7.0 0.00 0.00 0.00 64 1011.2
20260901234611 65 234 2.6 7.8 0.00 0.00 0.00 66 1011.3
20260901233103 65 277 2.6 7.8 0.00 0.00 0.00 66 1011.6
20260901231558 66 219 0.9 6.1 0.00 0.00 0.00 66 1011.6
20260901230056 65 254 0.0 5.2 0.00 0.00 0.00 66 1011.7
20260901224603 65 276 1.7 6.1 0.00 0.00 0.00 65 1011.7
20260901223110 66 301 1.7 6.1 0.00 0.00 0.00 66 1011.7
20260901221640 65 165 1.7 7.8 0.00 0.00 0.00 66 1011.8
20260901220108 66 176 3.5 11.3 0.00 0.00 0.00 64 1011.7
20260901214600 67 211 3.5 10.4 0.00 0.00 0.00 64 1011.6
20260901213105 66 215 2.6 8.7 0.00 0.00 0.00 65 1011.7
20260901211602 66 260 2.6 6.1 0.00 0.00 0.00 67 1011.7
20260901210101 64 203 5.2 10.4 0.00 0.00 0.00 68 1011.7
20260901204559 64 184 4.3 8.7 0.00 0.00 0.00 68 1011.9
20260901203103 64 188 2.6 8.7 0.00 0.00 0.00 71 1011.9
20260901201551 63 225 1.7 5.2 0.00 0.00 0.00 74 1012.1
20260901200059 61 243 1.7 7.0 0.00 0.00 0.00 77 1012.0
20260901194559 61 228 2.6 7.0 0.00 0.00 0.00 77 1012.0
20260901193108 62 200 1.7 7.0 0.00 0.00 0.00 76 1012.1
20260901191553 62 242 3.5 7.0 0.00 0.00 0.00 77 1012.2
20260901190104 61 217 4.3 10.4 0.00 0.00 0.00 80 1012.5
20260901184607 60 184 4.3 7.8 0.00 0.00 0.00 80 1012.5
20260901183057 59 260 3.5 8.7 0.00 0.00 0.00 84 1012.5
20260901181607 59 249 3.5 7.8 0.00 0.00 0.00 85 1012.6
20260901180109 58 189 2.6 6.1 0.00 0.00 0.00 88 1012.7
20260901174559 57 208 1.7 5.2 0.00 0.00 0.00 90 1012.8
20260901173102 57 198 1.7 7.0 0.00 0.00 0.00 91 1012.8
20260901171604 56 229 2.6 4.3 0.00 0.00 0.00 92 1012.5
20260901170106 56 188 2.6 6.1 0.00 0.00 0.00 91 1012.5
20260901164606 56 214 2.6 7.0 0.00 0.00 0.00 91 1012.5
20260901163121 56 199 2.6 7.8 0.00 0.00 0.00 90 1012.5
20260901161603 56 204 1.7 5.2 0.00 0.00 0.00 90 1012.5
20260901160107 56 180 2.6 6.1 0.00 0.00 0.00 90 1012.4
20260901154600 55 240 2.6 5.2 0.00 0.00 0.00 90 1012.3
20260901153102 55 202 1.7 8.7 0.00 0.00 0.00 88 1012.4
20260901151558 56 200 2.6 7.0 0.00 0.00 0.00 87 1012.3
20260901150118 56 281 1.7 5.2 0.00 0.00 0.00 86 1012.1
20260901144603 56 178 2.6 7.8 0.00 0.00 0.00 85 1012.0
20260901143108 56 216 2.6 9.6 0.00 0.00 0.00 85 1011.9
20260901141605 56 197 2.6 7.8 0.00 0.00 0.00 85 1011.9
20260901140120 56 209 2.6 6.1 0.00 0.00 0.00 86 1011.9
20260901134629 56 198 4.3 10.4 0.00 0.00 0.00 86 1011.8
20260901133105 56 225 2.6 7.8 0.00 0.00 0.00 86 1011.7
20260901131608 56 211 3.5 11.3 0.00 0.00 0.00 86 1011.6
20260901130112 56 160 3.5 8.7 0.00 0.00 0.00 86 1011.6
20260901124608 55 244 4.3 8.7 0.00 0.00 0.00 86 1011.5
20260901123104 55 212 3.5 7.8 0.00 0.00 0.00 86 1011.4
20260901121604 55 204 2.6 7.8 0.00 0.00 0.00 87 1011.4
20260901120107 55 223 4.3 9.6 0.00 0.00 0.00 87 1011.4
20260901114557 55 184 2.6 8.7 0.00 0.00 0.00 88 1011.5
20260901113145 54 203 4.3 8.7 0.00 0.00 0.00 88 1011.4
20260901111602 54 189 5.2 11.3 0.00 0.00 0.00 88 1011.3
20260901110108 54 217 4.3 12.2 0.00 0.00 0.00 88 1011.3
20260901104606 54 168 5.2 10.4 0.00 0.00 0.00 87 1011.2
20260901103106 55 205 6.1 13.0 0.00 0.00 0.00 87 1011.2
20260901101617 55 215 7.0 11.3 0.00 0.00 0.00 86 1010.9
20260901100117 55 209 7.0 12.2 0.00 0.00 0.00 86 1011.1
20260901094600 55 179 4.3 9.6 0.00 0.00 0.00 85 1011.1
20260901093108 56 186 4.3 12.2 0.00 0.00 0.00 85 1011.0
20260901091555 56 229 6.1 13.0 0.00 0.00 0.00 84 1010.8
20260901090104 56 223 7.0 13.0 0.00 0.00 0.00 84 1010.7
20260901084600 57 213 7.0 10.4 0.00 0.00 0.00 84 1010.6
20260901083108 57 180 4.3 8.7 0.00 0.00 0.00 83 1010.6
20260901081615 57 224 4.3 8.7 0.00 0.00 0.00 83 1010.8
20260901080100 57 207 6.1 9.6 0.00 0.00 0.00 83 1010.7
20260901074604 58 216 4.3 8.7 0.00 0.00 0.00 82 1010.5
20260901073106 58 219 7.0 10.4 0.00 0.00 0.00 80 1010.4
20260901071601 59 206 6.1 12.2 0.00 0.00 0.00 78 1010.1
20260901070103 60 203 7.0 12.2 0.00 0.00 0.00 76 1010.1
20260901064606 61 221 6.1 11.3 0.00 0.00 0.00 74 1010.0
20260901063101 61 219 6.1 9.6 0.00 0.00 0.00 73 1009.8
20260901061602 62 188 6.1 11.3 0.00 0.00 0.00 72 1009.7
20260901060100 63 202 5.2 7.8 0.00 0.00 0.00 70 1009.5
20260901054601 64 223 4.3 8.7 0.00 0.00 0.00 68 1009.4
20260901053118 65 188 4.3 7.8 0.00 0.00 0.00 66 1009.4
20260901051607 66 203 3.5 6.1 0.00 0.00 0.00 64 1009.6
20260901050106 68 176 2.6 7.0 0.00 0.00 0.00 60 1009.3
20260901044634 70 199 3.5 7.0 0.00 0.00 0.00 55 1009.0
20260901043113 71 217 2.6 5.2 0.00 0.00 0.00 51 1009.1
20260901041602 72 210 3.5 7.0 0.00 0.00 0.00 49 1008.8
20260901040059 72 221 2.6 4.3 0.00 0.00 0.00 49 1008.6
20260901034609 72 211 2.6 4.3 0.00 0.00 0.00 48 1008.3
20260901033052 72 217 2.6 4.3 0.00 0.00 0.00 48 1008.2
20260901031600 72 213 2.6 2.6 0.00 0.00 0.00 49 1008.1